Orbital Elements at Epoch 2455419.5 (2010-Aug-11.0) TDB
Reference: JPL 71 (heliocentric ecliptic J2000)
Element | Value | Uncertainty (1-sigma) | Units |
e | .3649285621726627 | 1.0569e-07 | |
a | 3.529450757974038 | 1.2949e-07 | au |
q | 2.241453367607358 | 4.2251e-07 | au |
i | 11.60310122334719 | 1.0316e-05 | deg |
node | 39.3556487525685 | 3.5795e-05 | deg |
peri | 180.3591041807299 | 3.0192e-05 | deg |
M | 98.63821886127027 | 2.692e-05 | deg |
tp | 2454755.906935710873 (2008-Oct-16.40693571) | 0.00015144 | TDB |
period | 2421.916229854855 6.63 | 0.00013328 3.649e-07 | d yr |
n | .148642630807084 | 8.18e-09 | deg/d |
Q | 4.817448148340718 | 1.7674e-07 | au |
|
| | Orbit Determination Parameters
Additional Information
|